Costa Mesa, CA

1:30 PM PST on February 25, 2017 (GMT -0800)
John Wayne-Orange County

Weather History for KSNA - February, 2013

Change the Weather History Date:

Wednesday, February 6, 2013

  Actual Average Record
Temperature  
Mean Temperature 58 °F 57 °F  
Max Temperature 62 °F 66 °F 82 °F (2006)
Min Temperature 54 °F 48 °F 41 °F (2002)
Degree Days  
Heating Degree Days 7 8  
Month to date heating degree days 38 48  
Since 1 July heating degree days 643 740  
Cooling Degree Days 0 0  
Month to date cooling degree days 0 0  
Year to date cooling degree days 0 5  
Growing Degree Days 6 (Base 50)    
Moisture  
Dew Point 46 °F    
Average Humidity 65    
Maximum Humidity 72    
Minimum Humidity 57    
Precipitation  
Precipitation 0.00 in 0.07 in 1.32 in (2010)
Month to date precipitation 0.01 0.36  
Year to date precipitation 1.32 3.27  
Since 1 July precipitation 4.34  
Snow  
Snow 0.00 in - - ()
Month to date snowfall 0.0  
Year to date snowfall 0.0  
Snow Depth 0.00 in    
Sea Level Pressure  
Sea Level Pressure 30.06 in    
Wind  
Wind Speed 5 mph (South)    
Max Wind Speed 10 mph    
Max Gust Speed 15 mph    
Visibility 8 miles    
Events      
T = Trace of Precipitation, MM = Missing Value Source: NWS Daily Summary

Daily Weather History Graph

Daily Weather History Graph

Search for Another Location

Airport or City:

Trip Planner

Search our weather history database for the weather conditions in past years. The results will help you decide how hot, cold, wet, or windy it might be!

Date:

Astronomy

Feb. 06, 2013 Rise Set
Actual Time 6:43 AM PST 5:27 PM PST
Civil Twilight 6:17 AM PST 5:53 PM PST
Nautical Twilight 5:48 AM PST 6:23 PM PST
Astronomical Twilight 5:19 AM PST 6:52 PM PST
Moon 3:26 AM PST (2/6) 1:56 PM PST (2/6)
Length of Visible Light 11h 35m
Length of Day
10h 44m
Waning Crescent, 16% of the Moon is Illuminated
Feb 6
Waning Crescent
Feb 9
New
Feb 17
First Quarter
Feb 25
Full
Mar 4
Last Quarter

Hourly Weather History & Observations

Time (PST) Temp. Dew Point Humidity Pressure Visibility Wind Dir Wind Speed Gust Speed Precip Events Conditions
12:53 AM 55.0 °F 46.0 °F 72% 30.03 in 10.0 mi SE 4.6 mph - N/A   Overcast
1:53 AM 55.0 °F 45.0 °F 69% 30.03 in 10.0 mi ESE 3.5 mph - N/A   Overcast
2:53 AM 55.0 °F 46.0 °F 72% 30.03 in 10.0 mi SSE 4.6 mph - N/A   Overcast
3:53 AM 55.0 °F 46.0 °F 72% 30.01 in 10.0 mi ESE 5.8 mph - N/A   Overcast
4:53 AM 54.0 °F 45.0 °F 72% 30.01 in 10.0 mi ESE 3.5 mph - N/A   Overcast
5:53 AM 54.0 °F 45.0 °F 72% 30.03 in 10.0 mi SE 5.8 mph - N/A   Mostly Cloudy
6:53 AM 54.0 °F 45.0 °F 72% 30.04 in 10.0 mi SE 4.6 mph - N/A   Mostly Cloudy
7:53 AM 55.0 °F 45.0 °F 69% 30.05 in 10.0 mi Variable 3.5 mph - N/A   Scattered Clouds
8:53 AM 57.0 °F 44.1 °F 62% 30.07 in 10.0 mi South 3.5 mph - N/A   Scattered Clouds
9:53 AM 59.0 °F 44.1 °F 58% 30.08 in 8.0 mi Calm Calm - N/A   Scattered Clouds
10:53 AM 57.9 °F 43.0 °F 58% 30.07 in 7.0 mi Calm Calm - N/A   Scattered Clouds
11:53 AM 59.0 °F 46.0 °F 62% 30.07 in 10.0 mi West 8.1 mph - N/A   Mostly Cloudy
12:53 PM 61.0 °F 46.9 °F 60% 30.04 in 9.0 mi SSW 9.2 mph - N/A   Scattered Clouds
1:53 PM 61.0 °F 46.9 °F 60% 30.03 in 10.0 mi WSW 4.6 mph - N/A   Scattered Clouds
2:53 PM 60.1 °F 46.9 °F 62% 30.04 in 10.0 mi WSW 6.9 mph - N/A   Partly Cloudy
3:53 PM 59.0 °F 46.9 °F 64% 30.04 in 10.0 mi SSW 8.1 mph - N/A   Partly Cloudy
4:53 PM 59.0 °F 45.0 °F 60% 30.04 in 10.0 mi WSW 4.6 mph - N/A   Clear
5:53 PM 57.0 °F 46.9 °F 69% 30.06 in 8.0 mi West 4.6 mph - N/A   Clear
6:53 PM 55.9 °F 48.0 °F 75% 30.07 in 7.0 mi West 3.5 mph - N/A   Clear
7:53 PM 55.0 °F 48.0 °F 77% 30.09 in 7.0 mi Calm Calm - N/A   Clear
8:53 PM 54.0 °F 48.0 °F 80% 30.10 in 5.0 mi Calm Calm - N/A   Clear
9:53 PM 53.1 °F 48.0 °F 83% 30.11 in 4.0 mi Calm Calm - N/A   Clear
10:53 PM 52.0 °F 46.9 °F 83% 30.12 in 4.0 mi Calm Calm - N/A   Clear
11:53 PM 51.1 °F 46.9 °F 86% 30.12 in 5.0 mi NNE 3.5 mph - N/A   Clear